Location: Unspecified
(51.5147°N, 7.4673°E)
Time: 06:46:01
(UTC+01:00)

A-11 Canister half - Pass Details

Date: 24 February 2026
Orbit: 1512 x 1687 km, 47.2° (Epoch: 8 March)

Event Time Altitude Azimuth Distance (km) Brightness Sun altitude
Rises 03:49:57 0° 285° (WNW) 4,874 - -33.4°
Reaches altitude 10° 03:55:17 10° 262° (W) 3,845 - -32.7°
Maximum altitude 03:59:29 14° 236° (SW) 3,522 - -32.1°
Drops below altitude 10° 04:03:38 10° 210° (SSW) 3,775 - -31.5°
Sets 04:08:49 0° 186° (S) 4,717 - -30.8°
